Helicity
53 46 41 75 96 97 76 44 78 94 49 36 50 83 86 92 87 104 24 76 148 112 61 61 58 69 64 60 59 51 40 23 19 50 94 90 90 72 58 47 40 35 31 25 27 38 49 52 38
57 54 70 91 107 116 67 50 129 17 73 90 107 91 99 103 66 21 69 127 126 131 64 52 58 71 66 56 62 46 47 50 35 50 83 86 85 65 42 39 31 27 21 21 26 29 35 34 32
59 52 94 74 76 65 56 55 153 83 91 82 59 56 64 90 41 -48 56 139 120 112 64 50 63 68 59 55 62 47 41 41 25 17 32 39 41 38 31 30 25 20 18 20 26 25 23 19 20
77 117 112 104 60 31 31 80 41 63 75 61 63 71 65 92 17 3 122 189 115 92 80 63 64 66 76 56 60 51 45 38 16 -1 -7 -16 4 12 21 21 16 13 13 12 14 12 6 7 9
124 135 113 90 35 15 3 119 49 70 88 55 43 34 46 84 97 40 130 145 103 108 83 60 78 83 83 56 65 51 31 28 15 8 -11 -22 -25 -23 -3 4 4 3 2 3 -2 2 0 3 9
147 138 123 85 43 44 34 69 58 91 81 91 74 50 27 29 72 28 105 188 182 122 74 68 86 96 92 64 63 61 40 30 19 11 1 -19 -37 -34 6 -1 -4 -3 -2 -3 -1 0 3 13 11
131 153 118 90 41 50 6 71 91 110 88 58 67 60 84 99 40 41 99 194 187 176 128 104 94 98 92 65 56 49 48 37 25 13 11 -20 -58 -3 20 12 4 4 4 9 20 12 5 5 7
138 162 130 100 53 2 -3 12 -14 140 175 163 102 68 134 71 42 36 56 194 212 153 129 142 126 112 89 67 59 57 51 50 49 23 32 18 22 39 25 16 11 7 15 16 17 10 4 4 4
146 189 140 114 70 44 56 26 19 79 137 146 144 60 63 60 79 81 118 209 184 148 125 123 143 140 107 98 73 79 66 55 50 61 36 23 41 46 47 28 25 17 16 19 14 9 14 8 4
220 185 129 125 52 41 69 65 68 117 158 154 125 91 67 73 89 104 129 133 175 142 126 114 123 130 121 108 104 98 93 81 46 63 46 26 31 59 68 52 42 28 29 23 18 22 29 34 30
180 153 133 77 45 72 41 112 86 229 232 138 103 122 63 84 64 68 90 100 85 140 128 128 117 108 106 139 144 127 111 102 61 55 37 57 43 58 85 72 53 38 38 33 42 40 42 56 58
155 137 91 56 49 86 100 109 146 142 237 305 177 124 107 115 91 78 49 59 77 92 111 148 149 125 105 138 160 131 114 94 63 45 47 79 93 123 90 80 68 58 44 62 64 61 79 80 71
139 122 113 112 126 95 95 102 112 122 185 177 96 107 128 157 130 88 54 61 80 103 101 142 185 164 193 196 167 148 116 89 48 67 64 101 99 90 116 108 90 91 94 109 111 103 99 96 86
147 119 154 137 117 113 105 57 97 110 84 87 103 22 65 158 197 157 130 120 111 131 158 135 207 210 261 230 184 174 125 92 71 70 81 125 117 114 151 169 173 164 171 145 126 108 100 104 93
182 191 169 101 70 76 106 51 98 75 85 87 31 33 -10 62 153 197 142 115 179 105 156 178 204 283 274 243 211 185 139 115 106 99 135 130 118 165 212 248 217 192 184 178 163 143 120 124 97
159 113 93 61 79 96 125 59 51 44 123 137 106 61 17 -34 35 140 156 128 129 183 143 180 224 254 304 248 208 189 121 148 167 143 143 145 184 210 209 241 213 212 192 169 179 157 144 115 97
137 105 70 136 71 101 109 64 30 105 146 111 98 89 80 50 37 21 125 133 95 149 189 206 289 276 240 259 243 191 134 157 194 190 240 258 277 250 236 248 234 235 214 197 186 177 129 113 92
90 121 142 137 145 127 117 93 91 63 71 46 69 75 78 80 59 38 62 121 118 86 159 153 331 323 309 253 228 203 190 182 224 241 303 331 353 287 287 274 245 240 249 231 201 169 150 104 87
138 158 126 113 181 136 79 72 61 51 13 -4 1 37 10 23 27 47 62 73 82 105 98 147 195 337 440 390 309 255 228 245 295 302 383 433 390 341 341 284 265 228 241 221 190 167 147 137 95
82 76 60 70 107 111 67 28 23 50 81 82 35 55 41 35 36 17 26 56 84 86 93 99 131 292 429 474 398 329 313 311 343 363 390 419 383 392 347 302 257 232 267 238 197 157 134 112 107
74 77 63 58 56 52 35 14 43 55 36 43 41 53 72 61 56 55 65 40 47 69 96 100 105 196 382 437 503 565 570 540 487 444 427 425 418 398 356 331 297 235 253 239 192 150 126 104 85
65 92 75 97 71 76 57 33 68 43 21 48 34 23 20 21 48 61 94 102 84 45 85 114 123 122 299 422 533 530 472 500 493 502 514 450 414 414 401 351 334 274 281 247 185 139 113 92 77
58 75 69 72 63 32 74 89 19 -36 41 42 82 94 58 40 56 58 82 143 142 136 120 141 107 165 185 387 482 514 503 553 602 571 583 514 482 436 431 368 358 303 294 255 188 147 122 91 78
81 66 61 54 49 87 38 120 35 -30 -3 54 56 86 108 111 128 151 140 167 176 187 180 138 133 141 231 334 443 486 579 572 584 559 538 558 552 488 432 389 369 316 286 268 197 152 128 103 90
108 80 51 69 100 69 109 73 179 57 38 40 37 45 86 109 173 172 187 212 221 232 201 153 143 161 188 346 437 554 563 578 529 501 545 610 577 526 445 392 368 342 314 264 213 163 128 102 93
81 74 82 50 34 24 116 42 21 -12 9 41 67 88 96 93 110 122 141 179 216 206 142 127 111 146 252 329 417 487 543 555 458 473 524 497 521 507 441 399 372 353 319 270 214 155 119 97 85
82 53 104 110 84 105 106 172 118 34 45 170 138 176 140 129 123 148 219 228 178 123 113 97 96 126 231 345 397 466 546 461 418 422 408 431 507 447 406 430 438 401 268 251 200 131 109 95 83
59 68 107 123 49 66 90 67 91 11 64 134 122 116 125 142 143 238 276 232 166 134 51 64 59 95 223 345 370 504 496 419 397 376 384 409 468 429 478 429 407 327 276 227 170 130 105 98 88
88 102 133 147 160 94 72 89 201 163 106 48 140 172 202 180 126 115 141 142 109 126 71 43 59 115 257 328 413 462 427 381 339 318 339 389 413 442 456 373 381 189 231 181 162 122 98 94 90
118 109 163 129 84 194 224 319 96 24 98 134 112 114 110 92 88 134 86 58 98 116 82 23 44 194 224 298 366 400 372 372 310 271 343 357 450 480 456 366 312 250 212 172 132 119 112 100 96
Wind_Speed
49 52 49 41 42 40 43 42 45 45 36 32 34 34 37 37 33 38 19 9 16 17 16 18 22 23 24 26 28 29 29 28 26 25 24 26 27 28 30 32 32 31 31 30 29 27 28 29 30
45 47 39 39 45 48 50 50 62 45 28 34 40 45 42 35 27 14 15 14 17 19 16 17 21 23 24 26 28 29 29 29 28 28 26 26 26 27 29 30 30 30 30 30 31 30 29 29 30
42 37 39 42 45 47 42 37 52 29 30 31 38 40 38 29 20 7 11 17 17 18 17 18 19 20 20 23 26 27 28 29 29 27 26 26 25 26 27 29 29 29 29 29 30 31 31 31 31
35 36 40 52 51 44 44 48 44 30 33 33 32 37 31 33 14 11 7 15 16 18 17 18 18 18 18 19 23 25 26 27 28 28 26 27 27 26 27 28 28 28 28 29 30 30 30 31 32
38 39 51 54 58 57 61 60 60 39 33 31 32 36 35 30 14 6 6 11 12 14 16 16 14 14 15 16 19 22 22 24 25 27 26 25 24 23 24 26 27 28 28 29 29 30 30 31 32
40 41 54 63 62 54 61 66 53 41 38 38 35 40 36 12 10 5 1 2 9 14 14 13 13 11 11 13 17 20 21 22 23 23 24 24 23 21 23 24 26 28 29 29 29 29 30 31 32
45 49 63 60 62 60 58 60 58 39 32 36 39 42 29 21 9 8 4 2 6 9 7 6 8 7 10 12 15 18 19 19 20 21 23 24 25 21 22 23 25 27 28 29 29 29 30 31 33
46 53 60 61 67 68 64 57 58 37 34 31 35 38 19 16 9 8 7 3 4 6 5 3 3 4 6 8 11 14 15 16 17 18 20 23 25 24 22 23 24 26 27 28 29 29 31 32 34
48 62 69 68 66 61 61 62 53 36 36 34 30 34 9 6 8 11 9 7 8 8 7 6 5 3 1 3 6 9 10 12 13 14 16 18 21 20 20 22 23 25 26 27 29 31 32 34 37
54 67 70 57 61 63 61 57 54 44 35 36 40 22 12 9 9 10 8 10 10 13 12 10 8 7 4 4 3 5 7 8 7 9 10 13 15 17 18 20 21 23 25 27 30 32 35 37 39
57 70 63 67 64 55 56 61 54 51 46 39 34 29 21 16 15 11 11 12 13 12 14 15 12 10 8 7 6 7 7 6 4 3 5 9 11 11 16 19 20 22 24 27 30 33 37 39 41
68 61 71 71 69 69 62 57 63 57 51 56 47 38 37 48 17 13 15 17 17 16 14 14 15 14 13 10 9 7 9 5 3 2 3 10 9 8 11 15 17 19 23 27 30 33 38 40 43
64 67 70 66 68 67 60 63 65 76 67 63 68 62 53 48 35 28 24 24 19 21 18 16 16 17 18 15 14 13 11 9 6 4 4 4 7 8 7 11 13 19 22 25 31 34 39 42 44
50 57 60 61 67 69 70 67 64 61 64 73 70 83 73 57 60 59 44 38 36 21 21 19 17 17 18 19 19 17 13 11 9 8 6 4 9 7 11 10 12 18 23 27 31 35 38 42 43
47 56 62 67 68 71 62 80 74 64 64 76 85 83 93 77 75 71 66 52 44 26 22 23 22 18 18 18 17 19 17 15 12 10 7 6 7 8 7 10 17 22 24 26 30 35 38 41 43
53 56 70 62 60 60 54 84 62 58 57 66 67 54 64 99 90 78 75 75 62 47 27 26 25 23 20 19 19 19 21 17 13 11 10 7 5 3 6 11 16 21 24 27 30 33 37 40 43
50 64 61 61 51 44 45 65 60 59 65 65 60 49 38 42 89 95 65 56 70 58 42 31 30 28 25 22 20 19 18 21 17 14 12 8 5 6 8 12 16 18 22 26 29 33 35 41 44
59 60 56 57 47 46 57 70 67 71 70 73 69 57 51 50 52 56 73 58 55 60 54 44 36 33 29 25 24 22 20 20 19 18 15 11 10 9 11 13 14 16 19 22 25 30 36 40 44
49 55 59 60 57 64 65 72 75 77 82 85 79 73 71 65 67 66 65 62 66 56 60 52 40 38 36 34 29 28 28 27 22 18 16 15 14 11 9 10 12 15 17 18 20 26 33 41 43
58 61 61 61 53 61 74 93 89 88 91 78 79 71 71 71 70 73 74 68 64 62 63 66 52 42 41 41 38 35 33 32 26 22 19 16 15 14 11 9 10 11 15 17 19 23 30 36 43
50 55 58 60 64 64 72 88 73 64 60 64 63 64 66 67 68 68 66 70 76 73 69 60 59 49 46 44 43 43 36 33 32 26 24 22 19 14 12 8 9 11 13 15 18 22 27 31 38
51 45 47 49 52 61 52 81 72 65 67 63 57 55 53 55 61 64 65 65 66 75 71 66 59 54 49 45 45 43 43 43 43 33 28 24 21 18 13 10 8 11 11 13 16 20 24 29 35
43 37 41 45 50 59 55 63 69 55 65 62 58 55 57 58 53 58 60 60 59 59 66 65 66 58 54 50 48 46 47 46 43 37 30 25 23 19 15 12 7 8 10 11 13 19 23 28 32
29 35 42 45 47 62 56 50 72 55 52 48 46 53 54 52 51 54 52 51 54 56 58 65 66 68 57 53 51 49 47 44 44 42 37 30 26 23 18 14 10 8 8 10 11 16 22 28 32
30 34 42 47 48 54 48 54 64 54 61 61 66 69 59 50 56 54 54 57 58 61 65 70 72 72 65 58 55 52 49 46 44 43 41 32 30 29 23 16 13 11 10 10 12 16 22 28 33
30 33 36 49 53 60 50 65 66 51 55 55 63 58 55 57 59 59 53 52 53 61 68 76 78 76 64 62 58 53 49 46 43 41 40 36 32 29 23 18 15 12 10 9 12 18 23 28 34
29 32 32 49 53 64 58 64 67 67 66 61 57 60 66 66 58 50 48 50 56 59 65 72 80 78 68 63 60 55 50 45 42 39 37 36 29 27 23 18 16 14 9 10 14 20 26 31 37
24 27 39 43 58 65 61 70 67 70 61 67 74 69 69 69 60 42 44 48 54 59 64 73 76 72 66 65 59 56 51 45 40 36 36 33 29 25 21 18 15 14 12 11 16 22 27 34 40
29 37 37 38 38 57 73 56 53 52 60 75 68 66 68 72 58 46 47 49 48 58 68 73 73 69 64 58 56 53 48 41 37 34 33 30 27 24 20 18 14 11 12 14 19 25 30 37 42
28 34 23 39 46 37 49 59 36 40 52 70 88 100 104 82 61 65 54 46 53 61 73 75 76 60 60 50 48 50 46 39 36 32 29 26 25 20 17 14 10 11 11 15 21 29 34 40 47
Wind_Direction
291 289 297 299 280 281 279 279 277 284 292 299 305 301 296 301 296 293 350 62 87 98 89 80 80 68 54 44 36 29 28 25 27 24 34 39 40 32 26 24 24 24 23 24 25 23 21 16 12
294 294 298 286 275 272 273 270 274 283 297 304 297 290 290 297 315 346 3 79 98 106 97 89 86 74 63 52 40 35 38 34 32 37 38 33 33 32 29 28 27 26 27 26 25 23 18 13 11
289 293 284 276 272 269 275 280 292 296 304 305 301 298 291 299 325 30 4 98 96 106 102 98 90 77 61 51 44 47 46 39 37 35 35 35 36 41 37 31 29 28 24 21 20 18 16 14 14
283 283 281 267 266 274 270 273 297 302 305 314 302 296 305 304 323 336 92 110 104 111 110 107 94 79 63 51 44 46 48 47 45 39 39 38 47 42 38 32 29 26 22 15 15 17 14 14 13
272 275 266 266 266 267 263 268 276 294 302 308 302 290 307 310 343 45 101 119 118 118 117 113 102 80 61 52 44 46 51 49 44 41 41 38 36 38 34 32 28 24 18 15 13 16 16 14 13
266 269 264 261 264 270 267 265 281 288 293 291 298 296 301 336 346 346 248 130 127 129 128 120 114 89 64 64 55 58 61 64 51 42 36 30 29 39 38 34 28 21 17 14 13 13 11 9 2
262 264 260 264 265 269 271 271 280 286 288 289 293 296 302 304 325 339 300 182 152 145 140 126 118 95 83 81 75 72 73 70 59 49 43 29 23 59 50 38 26 19 14 14 13 7 359 356 358
265 267 262 263 261 267 267 280 286 279 280 296 299 299 298 304 317 328 304 222 170 170 175 188 178 112 91 78 80 73 74 76 68 53 50 37 37 55 50 35 23 17 17 10 5 356 351 351 352
264 261 259 259 262 268 273 278 289 292 285 290 299 304 313 330 326 306 289 273 246 243 234 206 209 209 120 55 64 61 64 76 78 67 56 40 42 44 40 30 22 15 10 5 358 351 349 345 343
256 257 260 268 269 271 275 279 284 284 287 286 287 313 303 300 303 292 263 259 253 252 249 236 224 210 228 295 343 8 23 38 62 67 54 39 35 45 46 33 24 16 9 1 357 352 348 348 346
260 258 265 266 269 278 280 275 281 282 280 286 284 286 283 279 273 256 260 254 242 246 251 246 239 231 235 276 284 310 332 343 5 49 31 11 6 36 36 39 28 13 5 358 352 349 347 346 345
259 265 264 266 268 273 277 280 274 277 278 280 285 282 293 282 260 235 236 245 247 241 235 230 231 234 249 274 270 285 293 296 298 330 356 338 4 47 26 25 28 21 12 359 353 347 346 346 345
261 264 266 269 272 276 279 276 274 268 275 279 272 273 280 285 282 280 278 277 246 235 233 230 217 231 252 260 272 276 278 273 252 248 279 317 331 340 12 8 26 13 10 5 356 350 346 346 346
274 268 271 273 274 275 276 276 275 277 278 275 275 263 268 277 271 271 278 283 282 238 229 223 226 228 245 258 267 269 258 254 245 259 252 274 315 330 339 2 13 3 355 352 350 349 347 346 347
271 272 275 273 274 271 282 271 271 280 280 274 269 268 259 267 266 267 269 277 282 278 233 223 229 236 228 243 252 268 261 259 254 241 239 268 297 311 335 348 345 346 348 349 348 346 346 346 347
268 275 271 279 277 276 270 268 279 280 279 278 278 279 273 248 261 267 266 268 273 280 259 228 229 225 231 236 244 261 265 261 249 249 254 254 276 281 316 334 338 342 344 344 344 343 344 345 346
270 269 272 278 280 281 266 276 281 278 278 279 281 281 275 272 258 257 271 270 269 271 273 246 234 228 226 234 243 248 250 259 255 259 256 256 252 275 303 321 330 339 342 340 342 342 342 340 341
268 268 274 275 287 279 278 275 280 277 278 277 279 282 281 279 278 260 268 271 271 266 267 267 248 234 231 240 238 248 247 259 258 256 254 248 257 276 301 314 325 336 340 344 344 343 344 340 338
270 275 276 276 281 284 280 280 280 279 276 274 276 277 277 278 277 275 275 277 271 267 266 263 254 241 239 245 242 243 248 255 253 252 253 258 263 266 276 298 319 331 335 341 347 346 342 338 339
270 273 275 280 285 290 284 276 279 278 275 278 277 278 277 278 277 275 275 276 276 274 267 265 261 246 236 242 247 252 252 257 254 257 258 253 253 258 262 275 300 323 332 336 341 344 341 340 340
274 275 278 281 287 291 290 282 286 288 284 283 282 279 277 276 278 278 277 275 273 273 272 268 266 256 244 244 251 261 259 261 260 251 255 258 256 243 244 261 290 313 329 330 338 342 341 340 342
275 286 285 288 291 286 302 283 285 286 284 289 289 286 283 280 281 280 282 281 278 273 274 271 267 263 250 241 242 238 244 247 256 250 255 254 250 240 236 254 278 305 327 331 339 346 343 342 338
277 292 295 296 295 295 293 290 287 298 293 291 291 291 289 286 286 285 285 284 283 282 271 274 269 262 256 246 241 239 248 255 255 253 249 252 252 241 237 248 256 293 319 332 338 340 342 342 341
292 294 296 298 298 290 292 287 290 301 306 304 301 302 303 298 292 294 291 291 290 289 285 274 270 264 255 248 243 241 243 248 249 246 249 249 252 243 237 242 254 277 302 319 332 341 341 342 342
285 295 299 296 295 293 304 293 290 306 309 308 301 300 301 299 297 296 294 293 292 291 288 284 276 268 260 247 243 242 244 245 239 239 246 243 245 242 234 234 245 261 292 309 328 335 339 339 338
282 292 296 297 296 297 306 296 304 313 315 318 314 310 305 300 298 294 293 294 297 295 294 286 280 269 259 249 243 241 243 245 247 242 244 248 242 237 229 239 255 270 280 302 326 331 334 336 337
293 292 311 302 306 301 303 305 310 311 310 321 327 324 319 308 301 294 293 296 296 298 296 296 281 270 259 249 243 242 242 243 244 244 245 243 239 232 232 241 252 275 274 294 318 324 329 333 333
307 316 303 307 304 305 309 306 310 313 318 322 321 322 322 319 310 296 294 297 300 300 301 295 284 271 259 249 243 240 241 244 242 241 242 241 233 223 231 243 253 265 279 295 314 322 329 330 332
294 302 313 321 324 314 309 321 336 330 328 326 329 328 328 325 316 304 300 300 307 306 300 292 281 268 259 250 239 237 239 241 237 235 238 232 224 224 233 231 255 243 281 299 316 323 326 328 331
303 305 324 319 322 333 331 313 345 338 338 331 323 316 308 307 311 302 300 302 304 304 294 287 276 266 256 246 235 235 236 235 232 234 229 218 218 225 234 237 241 267 286 308 319 324 327 327 327